This is the latest recevied weather packets stored in our database for station/object N7CEE-2. If no packets are shown the sender has not sent any weather packets the latest 10 day(s).
| Time | Temp. | Humidity | Pressure | Rain* | Wind** | Luminosity | Snow |
|---|---|---|---|---|---|---|---|
| 1777501897 | 30° C | 14% | 1013.8 hPa | 0 mm | - | 480 W/m² | - |
| 1777501593 | 30° C | 15% | 1013.9 hPa | 0 mm | - | 678 W/m² | - |
| 1777501290 | 30.56° C | 15% | 1013.9 hPa | 0 mm | - | 598 W/m² | - |
| 1777500988 | 30° C | 15% | 1013.9 hPa | 0 mm | - | 738 W/m² | - |
| 1777500686 | 31.11° C | 15% | 1014.3 hPa | 0 mm | - | 738 W/m² | - |
| 1777500382 | 30.56° C | 15% | 1014.5 hPa | 0 mm | - | 811 W/m² | - |
| 1777500078 | 30.56° C | 16% | 1014.1 hPa | 0 mm | - | 769 W/m² | - |
| 1777499775 | 30.56° C | 16% | 1014.6 hPa | 0 mm | - | 765 W/m² | - |
| 1777499471 | 30° C | 16% | 1014.9 hPa | 0 mm | - | 788 W/m² | - |
| 1777499170 | 30° C | 16% | 1014.8 hPa | 0 mm | - | 753 W/m² | - |
| 1777498866 | 30° C | 16% | 1014.8 hPa | 0 mm | - | 833 W/m² | - |
| 1777498563 | 30° C | 16% | 1014.8 hPa | 0 mm | - | 840 W/m² | - |
| 1777498258 | 29.44° C | 16% | 1014.8 hPa | 0 mm | - | 841 W/m² | - |
| 1777497958 | 30° C | 16% | 1015 hPa | 0 mm | - | 860 W/m² | - |
| 1777497653 | 29.44° C | 16% | 1014.8 hPa | 0 mm | - | 863 W/m² | - |
| 1777497350 | 29.44° C | 17% | 1014.9 hPa | 0 mm | - | 870 W/m² | - |
| 1777497045 | 30° C | 16% | 1014.8 hPa | 0 mm | - | 881 W/m² | - |
| 1777496743 | 30° C | 17% | 1014.9 hPa | 0 mm | - | 889 W/m² | - |
| 1777496439 | 30.56° C | 16% | 1015.1 hPa | 0 mm | - | 898 W/m² | - |
| 1777496136 | 29.44° C | 17% | 1015.1 hPa | 0 mm | - | 907 W/m² | - |
| 1777495832 | 30° C | 17% | 1015.1 hPa | 0 mm | - | 915 W/m² | - |
| 1777495528 | 30° C | 17% | 1015.3 hPa | 0 mm | - | 922 W/m² | - |
| 1777495224 | 28.89° C | 17% | 1015.3 hPa | 0 mm | - | 931 W/m² | - |
| 1777494922 | 30° C | 17% | 1015.4 hPa | 0 mm | - | 936 W/m² | - |
| 1777494619 | 29.44° C | 17% | 1015.3 hPa | 0 mm | - | 939 W/m² | - |
* Rain latest hour (hover to see other rain measurements)
** Current wind speed in m/s (hover to see current wind gust speed)